contact:dominique.lefevre@mio.osupytheas.fr, maurice.libes@osupytheas.fr, didier.mallarino@osupytheas.fr
Project:EMSO http://www.emso-fr.org/EMSO-France
Depth: 2436.0 m
Title:EMSO Ligure Ouest : Data MII capteur AQUADOPP
Date,Latitude,Longitude,X_East,Y_North,Z_Up,Amplitude_X,Amplitude_Y,Amplitude_Z,Batterie,SoundSpeed,Heading,Pitch,Roll,Pressure,TIS,Speed,Direction
, degrees North, degrees East, m.s-1, m.s-1,m.s-1, 1, 1, 1, Volt, m.s-1, degree, degree, degree, dbar, degree_C, m.s-1, degree
2019-08-17T00:00:40,42.805,6.029,-0.014,0.012,0.016,103.0,105.0,100.0,13.4,1505.4,326.4,-0.7,1.8,2470.145,13.34,0.018,310.6
2019-08-17T00:03:41,42.805,6.029,0.005,-0.005,0.003,104.0,106.0,99.0,13.3,1505.4,324.5,-0.7,1.8,2470.091,13.34,0.007,135.0
2019-08-17T00:06:42,42.805,6.029,0.016,0.008,-0.001,103.0,105.0,99.0,13.4,1505.4,326.6,-0.7,1.9,2470.103,13.34,0.017,63.4
2019-08-17T00:09:43,42.805,6.029,0.006,0.01,0.0,103.0,107.0,100.0,13.3,1505.4,326.4,-0.7,1.8,2470.125,13.34,0.011,31.0
2019-08-17T00:12:44,42.805,6.029,-0.034,0.027,-0.036,102.0,105.0,99.0,13.4,1505.4,325.9,-0.7,1.8,2470.105,13.34,0.043,308.5
2019-08-17T00:15:45,42.805,6.029,-0.007,0.018,-0.046,103.0,108.0,98.0,13.3,1505.4,326.5,-0.7,1.8,2470.135,13.34,0.019,338.8
2019-08-17T00:18:46,42.805,6.029,-0.004,0.017,-0.004,104.0,106.0,100.0,13.4,1505.4,323.5,-0.7,1.9,2470.065,13.34,0.017,346.8
2019-08-17T00:21:47,42.805,6.029,-0.002,0.004,-0.004,103.0,107.0,99.0,13.3,1505.4,327.1,-0.7,1.8,2470.09,13.34,0.004,333.4
2019-08-17T00:24:48,42.805,6.029,-0.002,-0.007,0.005,103.0,107.0,101.0,13.4,1505.4,326.5,-0.7,1.9,2470.08,13.34,0.007,195.9
2019-08-17T00:27:49,42.805,6.029,-0.05,0.006,-0.045,104.0,105.0,99.0,13.3,1505.4,323.0,-0.7,1.8,2470.067,13.34,0.05,276.8
2019-08-17T00:30:50,42.805,6.029,-0.035,0.0,-0.027,103.0,107.0,100.0,13.4,1505.4,326.8,-0.7,1.8,2470.097,13.34,0.035,270.0
2019-08-17T00:33:51,42.805,6.029,-0.05,0.021,-0.016,101.0,107.0,99.0,13.3,1505.4,324.3,-0.7,1.8,2470.093,13.34,0.054,292.8
2019-08-17T00:36:52,42.805,6.029,0.0,0.003,-0.007,102.0,106.0,100.0,13.4,1505.4,323.5,-0.7,1.9,2470.064,13.34,0.003,0.0
2019-08-17T00:39:53,42.805,6.029,-0.001,-0.002,0.021,102.0,108.0,101.0,13.4,1505.4,327.8,-0.7,1.8,2470.087,13.34,0.002,206.6
2019-08-17T00:42:54,42.805,6.029,0.003,0.016,-0.023,102.0,108.0,99.0,13.4,1505.4,326.6,-0.7,1.8,2470.068,13.34,0.016,10.6
2019-08-17T00:45:55,42.805,6.029,-0.038,0.017,-0.047,101.0,106.0,100.0,13.3,1505.4,325.8,-0.7,1.8,2470.091,13.34,0.041,294.1
2019-08-17T00:48:56,42.805,6.029,-0.027,0.031,0.003,101.0,106.0,101.0,13.4,1505.4,326.9,-0.7,1.8,2470.058,13.34,0.041,318.9
2019-08-17T00:51:57,42.805,6.029,-0.022,0.016,-0.043,102.0,107.0,99.0,13.4,1505.4,325.1,-0.7,1.9,2470.056,13.34,0.027,306.0
2019-08-17T00:54:58,42.805,6.029,-0.041,0.0,-0.092,103.0,108.0,100.0,13.4,1505.4,323.6,-0.7,1.8,2470.079,13.34,0.041,270.0
2019-08-17T00:57:59,42.805,6.029,0.0,0.019,-0.014,103.0,109.0,99.0,13.3,1505.4,327.0,-0.7,1.8,2470.074,13.34,0.019,0.0
2019-08-17T01:01:00,42.805,6.029,-0.019,-0.007,-0.059,105.0,105.0,99.0,13.4,1505.4,328.3,-0.7,1.8,2470.046,13.34,0.02,249.8
2019-08-17T01:04:01,42.805,6.029,-0.034,0.022,-0.02,104.0,108.0,99.0,13.4,1505.4,325.4,-0.7,1.8,2470.019,13.34,0.04,302.9
2019-08-17T01:07:02,42.805,6.029,0.002,0.012,0.006,103.0,108.0,99.0,13.3,1505.4,325.5,-0.7,1.8,2470.081,13.34,0.012,9.5
2019-08-17T01:10:03,42.805,6.029,0.0,0.005,0.0,103.0,105.0,101.0,13.4,1505.4,323.4,-0.7,1.9,2470.052,13.34,0.005,0.0
2019-08-17T01:13:04,42.805,6.029,0.02,0.01,0.01,102.0,107.0,99.0,13.3,1505.4,327.2,-0.7,1.8,2470.04,13.34,0.022,63.4
2019-08-17T01:16:05,42.805,6.029,0.007,0.002,-0.001,102.0,105.0,100.0,13.3,1505.4,326.3,-0.7,1.8,2470.065,13.34,0.007,74.1
2019-08-17T01:19:06,42.805,6.029,0.001,0.026,-0.025,102.0,105.0,99.0,13.4,1505.4,324.8,-0.7,1.8,2470.084,13.34,0.026,2.2
2019-08-17T01:22:07,42.805,6.029,0.016,0.008,0.036,104.0,107.0,99.0,13.4,1505.4,324.9,-0.7,1.9,2470.028,13.34,0.017,63.4
2019-08-17T01:25:08,42.805,6.029,-0.05,0.0,-0.06,102.0,109.0,100.0,13.4,1505.4,322.7,-0.7,1.8,2470.039,13.34,0.05,270.0
2019-08-17T01:28:09,42.805,6.029,-0.049,0.0,-0.04,103.0,108.0,100.0,13.3,1505.4,325.1,-0.7,1.8,2470.052,13.34,0.049,270.0
2019-08-17T01:31:10,42.805,6.029,0.003,0.023,-0.015,103.0,107.0,100.0,13.4,1505.4,326.9,-0.7,1.8,2470.048,13.34,0.023,7.4
2019-08-17T01:34:11,42.805,6.029,0.0,0.015,-0.036,103.0,107.0,100.0,13.3,1505.4,324.6,-0.7,1.9,2470.039,13.34,0.015,0.0
2019-08-17T01:37:12,42.805,6.029,-0.055,0.002,-0.044,103.0,106.0,100.0,13.4,1505.4,324.6,-0.7,1.9,2470.04,13.34,0.055,272.1
2019-08-17T01:40:13,42.805,6.029,-0.014,0.004,-0.061,106.0,107.0,99.0,13.4,1505.4,327.4,-0.7,1.9,2470.055,13.34,0.014,285.9
2019-08-17T01:43:14,42.805,6.029,-0.033,0.004,-0.067,102.0,107.0,100.0,13.4,1505.4,326.4,-0.7,1.8,2470.064,13.34,0.033,276.9
2019-08-17T01:46:15,42.805,6.029,-0.023,0.013,-0.018,104.0,106.0,100.0,13.3,1505.4,324.1,-0.7,1.8,2470.058,13.34,0.026,299.5
2019-08-17T01:49:16,42.805,6.029,-0.002,-0.008,-0.032,105.0,107.0,99.0,13.4,1505.4,326.4,-0.7,1.8,2470.031,13.34,0.008,194.0
2019-08-17T01:52:17,42.805,6.029,-0.019,0.033,0.026,102.0,107.0,101.0,13.4,1505.4,327.8,-0.7,1.9,2470.042,13.34,0.038,330.1
2019-08-17T01:55:18,42.805,6.029,-0.009,0.008,-0.047,107.0,107.0,99.0,13.3,1505.4,325.9,-0.7,1.8,2469.995,13.34,0.012,311.6
2019-08-17T01:58:19,42.805,6.029,-0.025,-0.006,-0.042,104.0,109.0,100.0,13.4,1505.4,323.8,-0.8,1.8,2470.019,13.34,0.025,256.5
2019-08-17T02:01:20,42.805,6.029,-0.03,0.014,-0.052,105.0,108.0,100.0,13.4,1505.4,325.1,-0.7,1.8,2470.048,13.34,0.033,295.0
2019-08-17T02:04:21,42.805,6.029,-0.028,-0.004,-0.046,103.0,108.0,99.0,13.4,1505.4,324.0,-0.7,1.8,2470.008,13.34,0.028,261.9
2019-08-17T02:07:22,42.805,6.029,0.007,-0.009,-0.018,104.0,108.0,100.0,13.4,1505.4,327.8,-0.7,1.8,2469.998,13.34,0.011,142.1
2019-08-17T02:10:23,42.805,6.029,-0.054,0.0,-0.04,104.0,107.0,101.0,13.3,1505.4,326.0,-0.7,1.8,2470.0,13.34,0.053,270.0
2019-08-17T02:13:24,42.805,6.029,-0.042,0.017,-0.008,105.0,106.0,101.0,13.3,1505.4,328.1,-0.7,1.8,2470.015,13.34,0.045,292.0
2019-08-17T02:16:25,42.805,6.029,-0.009,0.02,-0.024,104.0,108.0,101.0,13.4,1505.4,326.7,-0.7,1.9,2470.009,13.34,0.021,335.8
2019-08-17T02:19:26,42.805,6.029,-0.043,0.011,-0.041,105.0,109.0,99.0,13.3,1505.4,327.8,-0.7,1.8,2470.026,13.34,0.044,284.3
2019-08-17T02:22:27,42.805,6.029,-0.071,-0.005,-0.055,103.0,106.0,100.0,13.4,1505.4,325.1,-0.7,1.8,2470.013,13.34,0.071,266.0
2019-08-17T02:25:28,42.805,6.029,0.013,0.001,-0.021,102.0,106.0,100.0,13.4,1505.4,322.9,-0.7,1.8,2470.077,13.34,0.013,85.6
2019-08-17T02:28:29,42.805,6.029,-0.065,0.012,-0.044,103.0,107.0,99.0,13.4,1505.4,324.7,-0.7,1.8,2470.013,13.34,0.066,280.5
2019-08-17T02:31:30,42.805,6.029,0.0,0.021,0.0,103.0,107.0,100.0,13.4,1505.4,325.0,-0.7,1.9,2469.999,13.34,0.021,0.0
2019-08-17T02:34:31,42.805,6.029,0.004,0.029,0.032,104.0,107.0,101.0,13.3,1505.4,322.7,-0.7,1.8,2469.976,13.34,0.029,7.8
2019-08-17T02:37:32,42.805,6.029,-0.033,0.007,-0.059,103.0,108.0,102.0,13.3,1505.4,327.2,-0.7,1.9,2470.029,13.34,0.033,282.0
2019-08-17T02:40:33,42.805,6.029,0.011,0.01,0.017,103.0,107.0,100.0,13.4,1505.4,325.6,-0.7,1.9,2470.018,13.34,0.014,47.7
2019-08-17T02:43:34,42.805,6.029,-0.018,0.007,-0.039,106.0,108.0,101.0,13.4,1505.4,324.4,-0.7,1.8,2470.009,13.34,0.019,291.2
2019-08-17T02:46:35,42.805,6.029,-0.022,0.018,-0.019,104.0,107.0,100.0,13.3,1505.4,326.5,-0.7,1.8,2470.032,13.34,0.028,309.3
2019-08-17T02:49:36,42.805,6.029,-0.052,0.013,-0.044,104.0,107.0,100.0,13.4,1505.4,326.2,-0.7,1.8,2469.998,13.34,0.053,284.0
2019-08-17T02:52:37,42.805,6.029,-0.021,0.012,-0.064,105.0,108.0,99.0,13.3,1505.4,326.6,-0.7,1.8,2470.04,13.34,0.024,299.7
2019-08-17T02:55:38,42.805,6.029,-0.06,0.005,-0.077,102.0,110.0,101.0,13.4,1505.4,324.9,-0.7,1.8,2470.042,13.34,0.06,274.8
2019-08-17T02:58:39,42.805,6.029,-0.045,0.013,-0.062,105.0,106.0,100.0,13.4,1505.4,324.4,-0.7,1.8,2469.986,13.34,0.046,286.1
2019-08-17T03:01:40,42.805,6.029,-0.035,0.025,-0.061,103.0,109.0,100.0,13.4,1505.4,326.6,-0.7,1.8,2470.005,13.34,0.043,305.5
2019-08-17T03:04:41,42.805,6.029,-0.058,0.015,-0.073,104.0,108.0,102.0,13.3,1505.4,323.7,-0.7,1.8,2470.02,13.34,0.059,284.5
2019-08-17T03:07:42,42.805,6.029,-0.037,-0.009,-0.056,103.0,108.0,100.0,13.4,1505.4,323.9,-0.7,1.8,2470.017,13.34,0.038,256.3
2019-08-17T03:10:43,42.805,6.029,-0.019,0.008,-0.026,103.0,107.0,100.0,13.4,1505.4,326.7,-0.7,1.8,2470.002,13.34,0.02,292.8
2019-08-17T03:13:44,42.805,6.029,0.023,0.013,0.036,105.0,107.0,98.0,13.4,1505.4,328.0,-0.7,1.9,2469.996,13.34,0.026,60.5
2019-08-17T03:16:45,42.805,6.029,-0.027,-0.001,-0.028,103.0,107.0,102.0,13.3,1505.4,326.1,-0.7,1.8,2470.022,13.34,0.027,267.9
2019-08-17T03:19:46,42.805,6.029,-0.032,-0.009,-0.038,105.0,106.0,100.0,13.4,1505.4,328.4,-0.7,1.8,2470.037,13.34,0.033,254.3
2019-08-17T03:22:47,42.805,6.029,-0.052,0.0,-0.082,103.0,107.0,100.0,13.4,1505.4,327.1,-0.7,1.8,2470.0,13.34,0.052,270.0
2019-08-17T03:25:48,42.805,6.029,-0.054,0.009,-0.076,103.0,108.0,99.0,13.4,1505.4,328.0,-0.7,1.9,2470.008,13.34,0.054,279.5
2019-08-17T03:28:49,42.805,6.029,-0.029,0.012,-0.048,103.0,108.0,98.0,13.4,1505.4,326.4,-0.7,1.8,2470.045,13.34,0.031,292.5
2019-08-17T03:31:50,42.805,6.029,-0.033,0.017,-0.014,103.0,108.0,101.0,13.3,1505.4,323.7,-0.7,1.9,2470.014,13.34,0.037,297.3
2019-08-17T03:34:51,42.805,6.029,-0.05,0.01,-0.066,103.0,106.0,101.0,13.4,1505.4,327.2,-0.7,1.8,2469.999,13.34,0.05,281.3
2019-08-17T03:37:52,42.805,6.029,-0.02,0.01,-0.03,103.0,107.0,100.0,13.3,1505.4,323.6,-0.7,1.8,2470.008,13.34,0.022,296.6
2019-08-17T03:40:53,42.805,6.029,-0.028,0.018,-0.039,103.0,108.0,100.0,13.4,1505.4,326.8,-0.7,1.8,2470.027,13.34,0.033,302.7
2019-08-17T03:43:54,42.805,6.029,-0.029,-0.006,-0.038,106.0,106.0,100.0,13.4,1505.4,326.8,-0.7,1.8,2470.05,13.34,0.029,258.3
2019-08-17T03:46:55,42.805,6.029,-0.001,-0.002,-0.022,103.0,107.0,100.0,13.4,1505.4,323.5,-0.7,1.9,2470.023,13.34,0.002,206.6
2019-08-17T03:49:56,42.805,6.029,-0.051,-0.005,-0.071,102.0,106.0,99.0,13.4,1505.4,327.6,-0.7,1.9,2470.006,13.34,0.051,264.4
2019-08-17T03:52:57,42.805,6.029,-0.032,0.037,-0.034,104.0,108.0,99.0,13.3,1505.4,327.2,-0.7,1.8,2469.998,13.34,0.048,319.1
2019-08-17T03:55:58,42.805,6.029,-0.04,-0.02,-0.055,103.0,104.0,99.0,13.3,1505.4,324.9,-0.7,1.8,2469.996,13.34,0.044,243.4
2019-08-17T03:58:59,42.805,6.029,-0.02,0.007,-0.027,102.0,107.0,101.0,13.4,1505.4,325.2,-0.7,1.8,2470.018,13.34,0.021,289.3
2019-08-17T04:02:00,42.805,6.029,0.012,0.011,0.026,103.0,107.0,100.0,13.4,1505.4,323.4,-0.7,1.9,2470.021,13.34,0.016,47.5
2019-08-17T04:05:01,42.805,6.029,0.019,0.003,-0.03,104.0,106.0,98.0,13.3,1505.4,325.6,-0.7,1.8,2470.028,13.34,0.019,81.0
2019-08-17T04:08:02,42.805,6.029,-0.028,0.014,-0.05,104.0,108.0,100.0,13.4,1505.4,325.6,-0.7,1.9,2470.003,13.34,0.031,296.6
2019-08-17T04:11:03,42.805,6.029,-0.018,-0.012,-0.017,104.0,107.0,99.0,13.4,1505.4,325.1,-0.7,1.8,2470.016,13.34,0.021,236.3
2019-08-17T04:14:04,42.805,6.029,0.002,0.013,-0.027,104.0,107.0,99.0,13.3,1505.4,326.6,-0.7,1.9,2470.06,13.34,0.013,8.7
2019-08-17T04:17:05,42.805,6.029,-0.015,0.006,-0.04,104.0,108.0,100.0,13.4,1505.4,326.7,-0.7,1.8,2469.994,13.34,0.016,291.8
2019-08-17T04:20:06,42.805,6.029,0.007,0.005,-0.007,103.0,109.0,100.0,13.4,1505.4,326.4,-0.7,1.8,2470.042,13.34,0.008,54.5
2019-08-17T04:23:07,42.805,6.029,0.034,0.014,0.005,103.0,107.0,99.0,13.3,1505.4,326.6,-0.7,1.8,2470.038,13.34,0.036,67.6
2019-08-17T04:26:08,42.805,6.029,0.014,0.005,-0.041,103.0,107.0,99.0,13.4,1505.4,327.2,-0.7,1.8,2470.022,13.34,0.014,70.4
2019-08-17T04:29:09,42.805,6.029,0.003,0.014,0.038,102.0,108.0,101.0,13.4,1505.4,323.5,-0.7,1.8,2470.048,13.34,0.014,12.1
2019-08-17T04:32:10,42.805,6.029,-0.036,-0.006,-0.04,103.0,109.0,100.0,13.4,1505.4,325.4,-0.7,1.8,2470.025,13.34,0.036,260.5
2019-08-17T04:35:11,42.805,6.029,-0.047,-0.011,-0.064,104.0,106.0,99.0,13.4,1505.4,325.6,-0.7,1.8,2470.031,13.34,0.048,256.8
2019-08-17T04:38:12,42.805,6.029,-0.038,0.013,-0.063,105.0,108.0,100.0,13.3,1505.4,325.5,-0.7,1.8,2470.018,13.34,0.04,288.9
2019-08-17T04:41:13,42.805,6.029,0.018,-0.006,0.026,104.0,107.0,100.0,13.3,1505.4,325.0,-0.7,1.8,2469.988,13.34,0.018,108.4
2019-08-17T04:44:14,42.805,6.029,-0.062,0.012,-0.039,104.0,108.0,101.0,13.4,1505.4,326.6,-0.7,1.8,2470.025,13.34,0.063,281.0
2019-08-17T04:47:15,42.805,6.029,0.007,-0.004,-0.031,105.0,108.0,102.0,13.3,1505.4,328.2,-0.7,1.8,2470.067,13.34,0.008,119.7
2019-08-17T04:50:16,42.805,6.029,-0.007,0.005,0.011,104.0,110.0,101.0,13.3,1505.4,326.4,-0.7,1.9,2470.041,13.34,0.008,305.5
2019-08-17T04:53:17,42.805,6.029,-0.016,0.005,-0.024,104.0,106.0,101.0,13.3,1505.4,323.0,-0.7,1.8,2470.008,13.34,0.016,287.4
2019-08-17T04:56:18,42.805,6.029,-0.023,-0.004,-0.022,106.0,106.0,101.0,13.4,1505.4,327.0,-0.7,1.8,2470.033,13.34,0.023,260.1
2019-08-17T04:59:19,42.805,6.029,0.009,0.005,0.011,103.0,107.0,101.0,13.4,1505.4,324.4,-0.7,1.8,2470.078,13.34,0.01,60.9
2019-08-17T05:02:20,42.805,6.029,-0.015,0.009,-0.006,104.0,107.0,100.0,13.4,1505.4,323.3,-0.7,1.8,2470.081,13.34,0.017,301.0
2019-08-17T05:05:21,42.805,6.029,-0.006,0.019,0.001,104.0,107.0,99.0,13.4,1505.4,324.5,-0.7,1.8,2470.08,13.34,0.019,342.5
2019-08-17T05:08:22,42.805,6.029,-0.057,0.002,-0.073,104.0,106.0,100.0,13.4,1505.4,326.1,-0.7,1.9,2470.044,13.34,0.057,272.0
2019-08-17T05:11:23,42.805,6.029,-0.033,0.015,-0.04,105.0,106.0,102.0,13.4,1505.4,328.1,-0.7,1.9,2470.082,13.34,0.036,294.4
2019-08-17T05:14:24,42.805,6.029,-0.032,0.001,-0.026,104.0,109.0,99.0,13.4,1505.4,325.3,-0.7,1.9,2470.034,13.34,0.032,271.8
2019-08-17T05:17:25,42.805,6.029,0.014,0.0,-0.022,106.0,109.0,100.0,13.3,1505.4,327.5,-0.7,1.8,2470.043,13.34,0.014,90.0
2019-08-17T05:20:26,42.805,6.029,0.0,0.004,-0.01,103.0,107.0,100.0,13.4,1505.4,327.2,-0.7,1.8,2470.052,13.34,0.004,0.0
2019-08-17T05:23:27,42.805,6.029,-0.007,0.012,-0.005,103.0,106.0,100.0,13.4,1505.4,326.5,-0.7,1.8,2470.064,13.34,0.013,329.7
2019-08-17T05:26:28,42.805,6.029,0.002,0.028,-0.016,104.0,107.0,101.0,13.4,1505.4,325.0,-0.7,1.9,2470.065,13.34,0.028,4.1
2019-08-17T05:29:29,42.805,6.029,-0.011,-0.015,-0.021,105.0,106.0,101.0,13.4,1505.4,328.0,-0.7,1.8,2470.057,13.34,0.018,216.3
2019-08-17T05:32:30,42.805,6.029,0.002,0.02,0.024,103.0,108.0,100.0,13.4,1505.4,327.8,-0.7,1.8,2470.096,13.34,0.02,5.7
2019-08-17T05:35:31,42.805,6.029,0.03,0.042,0.02,102.0,106.0,101.0,13.3,1505.4,325.4,-0.7,1.8,2470.086,13.34,0.051,35.5
2019-08-17T05:38:32,42.805,6.029,-0.047,0.005,-0.024,103.0,107.0,100.0,13.3,1505.4,323.7,-0.7,1.8,2470.065,13.34,0.047,276.1
2019-08-17T05:41:33,42.805,6.029,-0.03,0.022,-0.01,104.0,107.0,101.0,13.4,1505.4,327.4,-0.7,1.9,2470.086,13.34,0.037,306.3
2019-08-17T05:44:34,42.805,6.029,-0.007,0.02,-0.007,103.0,105.0,100.0,13.4,1505.4,325.7,-0.7,1.8,2470.075,13.34,0.021,340.7
2019-08-17T05:47:35,42.805,6.029,-0.013,0.021,0.01,103.0,107.0,100.0,13.4,1505.4,327.8,-0.7,1.8,2470.105,13.34,0.024,328.2
2019-08-17T05:50:36,42.805,6.029,-0.004,0.008,0.003,103.0,107.0,101.0,13.4,1505.4,325.4,-0.7,1.8,2470.091,13.34,0.008,333.4
2019-08-17T05:53:37,42.805,6.029,0.004,0.021,0.009,104.0,106.0,101.0,13.4,1505.4,323.5,-0.7,1.8,2470.055,13.34,0.021,10.8
2019-08-17T05:56:38,42.805,6.029,-0.022,0.019,0.006,105.0,106.0,99.0,13.3,1505.4,324.3,-0.7,1.8,2470.054,13.34,0.029,310.8
2019-08-17T05:59:39,42.805,6.029,-0.031,0.0,-0.067,104.0,105.0,100.0,13.3,1505.4,323.4,-0.7,1.8,2470.103,13.34,0.03,270.0
2019-08-17T06:02:40,42.805,6.029,-0.009,0.013,-0.008,103.0,106.0,101.0,13.4,1505.4,327.9,-0.7,1.8,2470.093,13.34,0.015,325.3
2019-08-17T06:05:41,42.805,6.029,-0.003,0.027,-0.048,102.0,106.0,101.0,13.4,1505.4,325.9,-0.7,1.8,2470.084,13.34,0.027,353.7
2019-08-17T06:08:42,42.805,6.029,0.012,0.001,-0.024,104.0,106.0,100.0,13.4,1505.4,326.4,-0.7,1.8,2470.068,13.34,0.012,85.2
2019-08-17T06:11:43,42.805,6.029,0.004,0.027,0.018,103.0,106.0,100.0,13.3,1505.4,323.7,-0.7,1.9,2470.07,13.34,0.027,8.4
2019-08-17T06:14:44,42.805,6.029,-0.004,0.018,0.0,104.0,107.0,100.0,13.4,1505.4,325.9,-0.7,1.8,2470.115,13.34,0.018,347.5
2019-08-17T06:17:45,42.805,6.029,-0.007,0.006,0.016,105.0,107.0,99.0,13.4,1505.4,326.5,-0.7,1.8,2470.136,13.34,0.009,310.6
2019-08-17T06:20:46,42.805,6.029,-0.022,0.013,-0.042,104.0,107.0,100.0,13.4,1505.4,323.5,-0.7,1.8,2470.089,13.34,0.025,300.6
2019-08-17T06:23:47,42.805,6.029,-0.027,0.002,-0.032,103.0,107.0,99.0,13.4,1505.4,328.1,-0.7,1.8,2470.099,13.34,0.027,274.2
2019-08-17T06:26:48,42.805,6.029,-0.006,0.013,-0.027,104.0,107.0,101.0,13.4,1505.4,325.2,-0.7,1.8,2470.153,13.34,0.014,335.2
2019-08-17T06:29:49,42.805,6.029,-0.011,-0.006,-0.018,104.0,105.0,101.0,13.4,1505.4,327.0,-0.7,1.8,2470.127,13.34,0.012,241.4
2019-08-17T06:32:50,42.805,6.029,-0.024,0.006,-0.031,104.0,105.0,100.0,13.3,1505.4,327.7,-0.7,1.9,2470.12,13.34,0.024,284.0
2019-08-17T06:35:51,42.805,6.029,0.006,0.014,0.013,105.0,107.0,98.0,13.4,1505.4,324.8,-0.7,1.8,2470.168,13.34,0.015,23.2
2019-08-17T06:38:52,42.805,6.029,-0.033,0.029,-0.033,102.0,107.0,100.0,13.4,1505.4,323.8,-0.7,1.8,2470.113,13.34,0.043,311.3
2019-08-17T06:41:53,42.805,6.029,-0.013,0.037,-0.038,105.0,106.0,100.0,13.3,1505.4,327.5,-0.7,1.8,2470.157,13.34,0.039,340.6
2019-08-17T06:44:54,42.805,6.029,-0.006,0.021,0.0,103.0,107.0,100.0,13.4,1505.4,324.6,-0.7,1.8,2470.115,13.34,0.021,344.1
2019-08-17T06:47:55,42.805,6.029,-0.027,0.011,-0.013,104.0,106.0,99.0,13.3,1505.4,325.8,-0.7,1.9,2470.118,13.34,0.029,292.2
2019-08-17T06:50:56,42.805,6.029,-0.063,0.009,-0.085,105.0,106.0,100.0,13.4,1505.4,325.9,-0.7,1.8,2470.15,13.34,0.063,278.1
2019-08-17T06:53:57,42.805,6.029,-0.034,-0.009,-0.036,103.0,107.0,100.0,13.4,1505.4,323.2,-0.7,1.8,2470.152,13.34,0.035,255.2
2019-08-17T06:56:58,42.805,6.029,0.003,0.011,-0.008,103.0,106.0,100.0,13.4,1505.4,326.9,-0.7,1.8,2470.14,13.34,0.011,15.3
2019-08-17T06:59:59,42.805,6.029,-0.014,0.011,0.002,104.0,108.0,99.0,13.4,1505.4,326.5,-0.7,1.9,2470.127,13.34,0.017,308.2
2019-08-17T07:03:00,42.805,6.029,0.012,0.014,0.037,103.0,107.0,100.0,13.4,1505.4,325.1,-0.8,1.8,2470.164,13.34,0.018,40.6
2019-08-17T07:06:01,42.805,6.029,0.002,0.015,-0.027,105.0,106.0,99.0,13.4,1505.4,325.0,-0.7,1.8,2470.146,13.34,0.015,7.6
2019-08-17T07:09:02,42.805,6.029,-0.018,0.026,-0.031,103.0,107.0,98.0,13.4,1505.4,325.6,-0.7,1.9,2470.121,13.34,0.031,325.3
2019-08-17T07:12:03,42.805,6.029,-0.045,0.005,-0.031,102.0,107.0,99.0,13.4,1505.4,328.1,-0.7,1.8,2470.146,13.34,0.045,276.3
2019-08-17T07:15:04,42.805,6.029,-0.038,0.031,-0.016,103.0,107.0,99.0,13.4,1505.4,325.8,-0.7,1.8,2470.149,13.34,0.049,309.2
2019-08-17T07:18:05,42.805,6.029,-0.015,0.012,-0.017,102.0,105.0,99.0,13.4,1505.4,324.9,-0.7,1.8,2470.089,13.34,0.019,308.7
2019-08-17T07:21:06,42.805,6.029,-0.013,0.021,-0.025,103.0,106.0,100.0,13.3,1505.4,327.5,-0.7,1.8,2470.135,13.34,0.024,328.2
2019-08-17T07:24:07,42.805,6.029,-0.013,0.01,-0.002,102.0,106.0,99.0,13.3,1505.4,326.2,-0.7,1.8,2470.135,13.34,0.016,307.6
2019-08-17T07:27:08,42.805,6.029,-0.003,0.01,-0.028,102.0,105.0,99.0,13.3,1505.4,326.7,-0.7,1.8,2470.15,13.34,0.01,343.3
2019-08-17T07:30:09,42.805,6.029,-0.032,0.008,-0.058,105.0,105.0,98.0,13.4,1505.4,327.2,-0.7,1.8,2470.152,13.34,0.032,284.0
2019-08-17T07:33:10,42.805,6.029,-0.012,0.02,-0.017,104.0,107.0,99.0,13.4,1505.4,323.6,-0.7,1.8,2470.146,13.34,0.023,329.0
2019-08-17T07:36:11,42.805,6.029,0.0,0.003,0.006,105.0,105.0,100.0,13.4,1505.4,326.9,-0.7,1.8,2470.137,13.34,0.003,0.0
2019-08-17T07:39:12,42.805,6.029,-0.025,0.036,0.01,103.0,106.0,98.0,13.4,1505.4,324.5,-0.7,1.9,2470.164,13.34,0.043,325.2
2019-08-17T07:42:13,42.805,6.029,-0.014,0.0,-0.041,103.0,106.0,99.0,13.3,1505.4,326.3,-0.7,1.8,2470.158,13.34,0.014,270.0
2019-08-17T07:45:14,42.805,6.029,-0.055,-0.006,-0.07,101.0,106.0,99.0,13.4,1505.4,325.0,-0.8,1.8,2470.167,13.34,0.055,263.8
2019-08-17T07:48:15,42.805,6.029,-0.003,0.009,-0.044,103.0,106.0,99.0,13.4,1505.4,324.1,-0.7,1.8,2470.152,13.34,0.009,341.6
2019-08-17T07:51:16,42.805,6.029,-0.031,0.003,-0.049,102.0,106.0,101.0,13.3,1505.4,325.9,-0.7,1.8,2470.19,13.34,0.031,275.5
2019-08-17T07:54:17,42.805,6.029,-0.04,0.01,-0.052,103.0,107.0,99.0,13.4,1505.4,324.0,-0.7,1.8,2470.136,13.34,0.041,284.0
2019-08-17T07:57:18,42.805,6.029,-0.028,0.011,-0.049,103.0,107.0,100.0,13.4,1505.4,326.3,-0.7,1.8,2470.15,13.34,0.03,291.4
2019-08-17T08:00:19,42.805,6.029,0.0,0.01,-0.021,102.0,105.0,99.0,13.4,1505.4,325.7,-0.7,1.8,2470.194,13.34,0.01,0.0
2019-08-17T08:03:20,42.805,6.029,-0.034,0.006,-0.063,103.0,107.0,99.0,13.4,1505.4,326.7,-0.7,1.8,2470.134,13.34,0.034,280.0
2019-08-17T08:06:21,42.805,6.029,-0.031,0.016,-0.039,102.0,107.0,98.0,13.4,1505.4,323.7,-0.7,1.9,2470.151,13.34,0.034,297.3
2019-08-17T08:09:22,42.805,6.029,-0.006,0.004,-0.015,101.0,107.0,99.0,13.4,1505.4,326.1,-0.7,1.8,2470.135,13.34,0.007,303.7
2019-08-17T08:12:23,42.805,6.029,0.008,0.026,-0.004,101.0,108.0,100.0,13.3,1505.4,325.6,-0.7,1.8,2470.14,13.34,0.027,17.1
2019-08-17T08:15:24,42.805,6.029,-0.039,-0.003,-0.018,101.0,107.0,103.0,13.4,1505.4,328.0,-0.7,1.9,2470.164,13.34,0.039,265.6
2019-08-17T08:18:25,42.805,6.029,-0.065,0.001,-0.097,103.0,106.0,99.0,13.4,1505.4,325.8,-0.7,1.8,2470.147,13.34,0.065,270.9
2019-08-17T08:21:26,42.805,6.029,-0.07,-0.001,-0.092,103.0,108.0,99.0,13.4,1505.4,327.6,-0.7,1.8,2470.119,13.34,0.07,269.2
2019-08-17T08:24:27,42.805,6.029,-0.059,0.007,-0.095,102.0,107.0,99.0,13.4,1505.4,324.8,-0.7,1.8,2470.166,13.34,0.059,276.8
2019-08-17T08:27:28,42.805,6.029,-0.009,0.027,-0.011,103.0,107.0,99.0,13.3,1505.4,325.7,-0.7,1.8,2470.168,13.34,0.028,341.6
2019-08-17T08:30:29,42.805,6.029,0.027,0.015,-0.039,100.0,106.0,100.0,13.4,1505.4,326.7,-0.7,1.8,2470.133,13.34,0.03,60.9
2019-08-17T08:33:30,42.805,6.029,-0.028,-0.015,-0.065,104.0,108.0,98.0,13.4,1505.4,325.0,-0.7,1.8,2470.146,13.34,0.031,241.8
2019-08-17T08:36:31,42.805,6.029,0.004,0.004,-0.023,103.0,105.0,99.0,13.4,1505.4,326.2,-0.7,1.8,2470.134,13.34,0.005,45.0
2019-08-17T08:39:32,42.805,6.029,0.0,0.012,-0.02,102.0,104.0,102.0,13.4,1505.4,324.0,-0.8,1.9,2470.145,13.34,0.012,0.0
2019-08-17T08:42:33,42.805,6.029,0.001,0.003,-0.029,103.0,107.0,99.0,13.3,1505.4,327.7,-0.8,1.9,2470.129,13.34,0.003,18.4
2019-08-17T08:45:34,42.805,6.029,-0.046,-0.007,-0.018,102.0,108.0,100.0,13.3,1505.4,324.7,-0.7,1.8,2470.132,13.34,0.046,261.3
2019-08-17T08:48:35,42.805,6.029,-0.049,-0.006,-0.062,102.0,108.0,101.0,13.4,1505.4,325.6,-0.7,1.8,2470.159,13.34,0.049,263.0
2019-08-17T08:51:36,42.805,6.029,-0.032,0.0,-0.062,104.0,107.0,100.0,13.4,1505.4,326.0,-0.7,1.8,2470.139,13.34,0.032,270.0
2019-08-17T08:54:37,42.805,6.029,0.012,-0.002,-0.001,102.0,108.0,98.0,13.3,1505.4,325.5,-0.7,1.8,2470.101,13.34,0.012,99.5
2019-08-17T08:57:38,42.805,6.029,0.047,0.016,0.002,102.0,107.0,99.0,13.3,1505.4,327.9,-0.7,1.8,2470.173,13.34,0.049,71.2
2019-08-17T09:00:39,42.805,6.029,0.006,0.003,-0.006,102.0,108.0,101.0,13.3,1505.4,323.5,-0.7,1.8,2470.172,13.34,0.006,63.4
2019-08-17T09:03:40,42.805,6.029,0.021,0.002,-0.029,104.0,108.0,99.0,13.4,1505.4,326.5,-0.7,1.9,2470.134,13.34,0.021,84.6
2019-08-17T09:06:41,42.805,6.029,-0.02,-0.001,-0.007,103.0,106.0,99.0,13.4,1505.4,326.2,-0.7,1.8,2470.13,13.34,0.02,267.1
2019-08-17T09:09:42,42.805,6.029,0.001,0.005,-0.03,104.0,107.0,98.0,13.4,1505.4,326.0,-0.7,1.8,2470.159,13.35,0.005,11.3
2019-08-17T09:12:43,42.805,6.029,-0.007,0.021,-0.015,103.0,109.0,97.0,13.4,1505.4,325.9,-0.7,1.8,2470.115,13.35,0.022,341.6
2019-08-17T09:15:44,42.805,6.029,0.027,-0.001,-0.02,103.0,108.0,99.0,13.4,1505.4,327.0,-0.7,1.8,2470.097,13.35,0.027,92.1
2019-08-17T09:18:45,42.805,6.029,0.003,0.016,0.0,103.0,108.0,100.0,13.4,1505.4,323.5,-0.7,1.8,2470.117,13.35,0.016,10.6
2019-08-17T09:21:46,42.805,6.029,0.0,0.011,-0.035,102.0,110.0,99.0,13.4,1505.4,325.0,-0.7,1.8,2470.157,13.34,0.011,0.0
2019-08-17T09:24:47,42.805,6.029,-0.009,0.007,0.014,103.0,108.0,101.0,13.4,1505.4,327.5,-0.7,1.8,2470.132,13.34,0.011,307.9
2019-08-17T09:27:48,42.805,6.029,0.011,0.026,-0.006,104.0,108.0,99.0,13.4,1505.4,326.4,-0.8,1.8,2470.147,13.34,0.028,22.9
2019-08-17T09:30:49,42.805,6.029,-0.001,0.013,-0.029,104.0,110.0,100.0,13.4,1505.4,327.8,-0.7,1.8,2470.123,13.34,0.013,355.6